Location: Firnhaberau
(48.4049°N, 10.8963°E)
Time: 16:30:06
(UTC+00:00)

Tiangong - Pass Details

Date: 23 June 2021
Orbit: 373 x 386 km, 41.5° (Epoch: 02 August)

Event Time Altitude Azimuth Distance (km) Brightness Sun altitude
Exits shadow 01:23:24 11° 153° (SSE) 1,338 3.5 -12.9°
Drops below altitude 10° 01:24:07 10° 140° (SE) 1,389 3.7 -12.9°
Sets 01:27:29 0° 101° (ESE) 2,250 5.2 -12.6°
